SCP
0 -0 -0 -0 -0 -0 -1 -1 -1 -1 -1 -1 -1 -1 -1 -0 -0 -0 -0 -0 -0 -0 -0 -0 0 -0 -0 -0 -0 -0 -0 0 0
0 0 0 -0 -1 -0 -1 -1 -1 -1 -1 -1 -1 -1 -1 -1 -0 -0 -0 -0 -0 -0 -0 0 -0 -0 -0 -0 -0 -0 -0 0 0
0 -0 0 0 -0 -1 -1 -2 -1 -1 -1 -1 -1 -0 -0 -1 -1 -0 -0 -0 -0 0 0 -0 -0 -0 -0 -0 -0 0 0 0 0
0 0 -0 -0 -0 -1 -1 -1 -1 -2 -1 -1 -0 -0 -0 -1 -1 -0 -0 -0 -0 0 0 -0 -0 -0 -0 -0 -0 0 0 0 0
-0 -0 0 0 -0 -1 -1 -2 -1 -1 -1 -1 -1 -1 -0 -1 -1 -1 -1 -0 -0 -0 -0 -0 -0 -0 -0 -0 0 0 0 0 0
0 -0 -0 0 -0 -1 -1 -1 -1 -1 -1 -1 -1 -0 -0 -0 -0 -1 -1 -0 -0 -0 -0 -0 -0 -0 -0 0 0 0 0 0 0
-0 -0 -1 -0 -0 0 0 -1 -1 0 -1 -1 -0 -1 -1 -1 -1 -1 -1 -0 -0 -0 -0 -0 -0 -0 -0 0 0 0 0 0 0
0 0 0 1 1 1 0 0 0 1 1 1 -0 -1 -1 -1 -1 -0 -0 0 -0 -0 -0 -0 -0 -0 0 0 0 0 0 0 0
0 0 0 0 0 2 4 2 0 1 2 3 2 0 -1 0 0 1 1 0 0 -0 0 -0 -0 -0 -0 0 0 0 0 0 0
0 0 0 0 0 0 2 4 1 0 2 7 6 4 3 2 1 1 1 1 1 0 0 0 0 -0 0 0 0 0 0 0 0
0 0 0 0 -0 -0 0 2 1 0 4 6 8 7 5 4 3 2 2 1 1 0 0 0 0 0 0 0 0 0 0 0 0
0 0 0 0 0 0 1 1 1 0 4 6 7 7 6 6 5 3 2 1 1 0 0 0 0 0 0 0 0 0 0 0 0
-0 0 0 1 1 -2 -1 0 0 1 3 6 5 7 6 7 5 4 3 2 1 0 0 0 0 0 0 0 0 0 0 0 0
0 -0 0 0 0 -0 -0 0 1 2 3 4 6 10 10 8 6 4 3 2 0 0 0 0 0 0 0 0 0 0 0 0 0
0 0 1 1 1 0 -0 0 0 1 3 4 6 8 5 4 3 3 1 0 0 0 0 0 0 0 0 0 0 0 0 0 0
0 0 1 0 0 0 0 0 0 1 1 2 3 3 3 2 2 2 0 0 0 0 0 0 0 0 0 0 0 0 0 0 0
0 0 0 1 1 0 -0 0 0 1 1 1 2 2 2 2 2 1 0 0 0 0 0 0 0 0 0 0 0 0 0 0 0
0 0 0 0 1 0 -0 -0 0 0 0 0 2 2 2 2 2 0 0 0 0 0 0 0 0 0 0 0 0 0 0 0 0
0 0 0 0 0 1 0 -0 -0 0 0 0 0 2 1 1 1 0 0 0 0 0 0 0 0 0 0 0 0 0 0 0 0
0 0 0 0 0 0 0 0 -0 0 0 1 1 1 1 1 0 0 0 0 0 0 0 0 0 0 0 0 0 0 0 0 0
Wind_Speed_500mb
46 61 58 95 98 99 95 88 84 81 78 73 68 59 54 52 51 47 44 36 31 26 27 30 38 34 25 20 20 20 21 22 22
23 39 53 86 96 100 100 91 91 88 83 78 69 63 59 57 58 52 50 42 36 28 23 22 27 24 22 24 24 24 24 23 25
21 23 37 54 81 98 103 94 91 90 85 78 66 62 62 60 61 60 54 47 42 36 36 33 34 30 28 28 27 25 27 27 27
24 32 29 51 65 96 104 98 96 90 89 85 72 62 60 64 62 63 61 56 48 44 41 41 42 38 35 32 31 30 30 31 30
54 67 69 75 68 81 100 105 103 98 94 92 79 60 58 60 59 63 66 65 56 49 48 46 45 44 42 37 32 30 31 31 29
13 11 40 72 76 85 103 110 107 101 98 97 87 77 65 65 62 63 67 68 61 58 54 52 49 48 45 40 34 31 31 30 28
57 69 89 5 9 51 94 109 111 108 104 101 96 87 78 70 69 66 65 68 69 67 61 57 54 50 46 42 38 36 32 29 26
63 70 73 71 56 32 26 43 91 107 108 105 102 95 89 82 72 68 69 69 73 72 66 61 54 51 48 44 42 38 32 27 26
60 58 58 59 59 56 59 60 63 90 108 112 109 104 96 89 84 79 77 72 73 74 69 66 57 53 48 46 43 38 30 29 28
43 42 46 46 60 52 47 59 56 82 107 112 112 109 103 95 88 84 83 78 75 74 76 73 63 59 52 48 44 39 32 30 31
12 17 31 43 56 61 49 38 66 58 96 109 109 111 107 98 90 86 84 80 79 77 80 78 69 65 53 49 46 40 36 29 29
27 22 29 24 29 33 29 48 63 58 81 106 109 108 107 102 96 90 86 83 79 79 78 79 70 67 54 52 49 44 42 39 32
18 20 18 28 36 35 29 36 41 49 73 100 108 107 103 103 97 92 90 84 82 84 67 51 58 60 52 50 49 48 49 46 39
14 13 16 24 35 45 50 41 32 23 61 86 94 95 96 92 94 84 76 89 92 90 61 59 63 67 50 51 48 49 53 49 45
12 18 20 23 30 39 45 54 35 22 29 60 75 82 72 65 64 68 72 93 98 94 84 72 69 61 57 52 49 50 52 52 49
8 14 22 32 32 31 37 40 40 29 24 27 41 48 56 58 57 59 59 79 85 93 72 76 72 69 58 56 57 56 54 53 57
19 23 29 30 34 32 33 34 33 30 26 29 40 49 54 52 53 58 66 63 78 72 68 67 62 63 65 63 60 60 60 58 61
17 21 31 33 38 39 36 35 36 31 27 21 31 47 45 43 50 52 61 60 54 60 62 61 68 65 67 64 64 58 59 60 62
20 27 34 39 40 42 45 42 37 33 36 30 26 36 38 50 54 48 70 55 68 64 61 55 59 52 56 54 50 43 44 47 50
31 35 34 44 55 51 45 42 36 33 38 42 36 36 42 39 54 60 59 62 67 66 58 52 51 54 50 47 42 39 40 33 45
Wind_Direction_500mb
218 210 206 204 205 201 202 204 207 209 211 214 213 215 220 220 219 216 219 219 217 219 218 227 220 217 231 246 247 253 252 259 264
209 229 214 202 205 205 202 204 209 213 216 217 218 218 219 221 219 218 220 220 220 222 202 189 197 215 227 242 248 257 263 259 264
193 208 201 204 198 200 207 209 210 213 218 218 217 215 217 221 221 220 220 222 220 215 210 211 217 230 238 246 250 264 264 262 266
158 168 229 217 212 206 209 211 212 213 217 217 215 212 215 220 222 222 222 222 219 217 219 223 226 234 241 249 255 262 262 260 263
168 160 206 233 227 216 208 212 213 216 218 216 215 210 211 217 222 222 223 224 222 221 224 222 228 236 240 245 251 254 256 255 259
88 329 256 221 222 208 211 214 215 216 219 218 216 212 212 215 218 220 223 223 222 223 224 226 228 231 236 242 253 248 246 249 252
56 53 46 74 254 213 210 215 217 218 220 220 218 215 214 216 218 219 220 219 220 223 227 229 231 232 236 240 249 245 243 246 237
62 57 51 49 50 30 336 252 218 222 221 220 219 219 220 219 219 221 219 217 218 224 228 230 231 232 232 238 238 240 240 236 229
48 48 55 49 43 34 23 4 251 229 225 223 220 222 224 224 222 219 220 218 216 221 227 227 228 227 235 236 232 234 232 229 227
54 46 33 26 7 7 7 352 330 244 232 226 224 223 225 225 225 222 222 220 216 217 223 223 224 226 235 227 226 226 223 219 216
359 344 326 329 336 324 272 318 315 265 237 231 226 225 225 226 224 225 225 221 220 219 223 221 218 224 232 221 222 218 207 201 208
47 60 43 39 358 324 310 293 293 262 238 233 230 225 226 226 225 225 225 223 222 221 227 220 215 227 221 216 217 216 207 206 208
72 50 33 19 14 6 329 305 294 258 234 229 231 228 227 226 228 229 228 226 221 224 231 239 237 232 216 216 213 211 210 206 210
35 8 358 1 4 357 360 355 327 282 229 227 230 228 227 228 228 234 238 227 222 226 227 213 231 221 213 212 215 212 208 210 211
30 10 358 350 351 353 349 3 356 307 242 230 227 227 233 245 248 249 248 229 222 222 223 218 216 204 206 207 214 215 212 216 219
316 345 339 332 334 333 341 344 355 355 285 254 247 240 242 247 250 249 248 241 232 219 215 208 202 203 201 211 211 212 213 217 217
297 304 318 327 327 328 329 329 337 344 1 290 266 253 242 243 245 247 250 246 226 224 213 209 212 209 210 211 210 213 212 212 212
300 288 296 301 314 318 320 311 314 323 324 316 291 263 259 245 248 250 245 241 244 228 235 238 219 212 216 217 216 217 217 215 212
302 292 296 292 295 300 307 308 298 295 302 303 277 259 248 250 247 238 246 236 232 228 230 231 217 225 225 222 231 234 222 219 220
290 305 284 286 288 284 289 289 303 297 299 296 269 254 245 238 242 258 235 241 228 229 219 218 218 218 221 220 229 219 202 209 214
Wind_Speed_850mb
46 61 58 95 98 99 95 88 84 81 78 73 68 59 54 52 51 47 44 36 31 26 27 30 38 34 25 20 20 20 21 22 22
23 39 53 86 96 100 100 91 91 88 83 78 69 63 59 57 58 52 50 42 36 28 23 22 27 24 22 24 24 24 24 23 25
21 23 37 54 81 98 103 94 91 90 85 78 66 62 62 60 61 60 54 47 42 36 36 33 34 30 28 28 27 25 27 27 27
24 32 29 51 65 96 104 98 96 90 89 85 72 62 60 64 62 63 61 56 48 44 41 41 42 38 35 32 31 30 30 31 30
54 67 69 75 68 81 100 105 103 98 94 92 79 60 58 60 59 63 66 65 56 49 48 46 45 44 42 37 32 30 31 31 29
13 11 40 72 76 85 103 110 107 101 98 97 87 77 65 65 62 63 67 68 61 58 54 52 49 48 45 40 34 31 31 30 28
57 69 89 5 9 51 94 109 111 108 104 101 96 87 78 70 69 66 65 68 69 67 61 57 54 50 46 42 38 36 32 29 26
63 70 73 71 56 32 26 43 91 107 108 105 102 95 89 82 72 68 69 69 73 72 66 61 54 51 48 44 42 38 32 27 26
60 58 58 59 59 56 59 60 63 90 108 112 109 104 96 89 84 79 77 72 73 74 69 66 57 53 48 46 43 38 30 29 28
43 42 46 46 60 52 47 59 56 82 107 112 112 109 103 95 88 84 83 78 75 74 76 73 63 59 52 48 44 39 32 30 31
12 17 31 43 56 61 49 38 66 58 96 109 109 111 107 98 90 86 84 80 79 77 80 78 69 65 53 49 46 40 36 29 29
27 22 29 24 29 33 29 48 63 58 81 106 109 108 107 102 96 90 86 83 79 79 78 79 70 67 54 52 49 44 42 39 32
18 20 18 28 36 35 29 36 41 49 73 100 108 107 103 103 97 92 90 84 82 84 67 51 58 60 52 50 49 48 49 46 39
14 13 16 24 35 45 50 41 32 23 61 86 94 95 96 92 94 84 76 89 92 90 61 59 63 67 50 51 48 49 53 49 45
12 18 20 23 30 39 45 54 35 22 29 60 75 82 72 65 64 68 72 93 98 94 84 72 69 61 57 52 49 50 52 52 49
8 14 22 32 32 31 37 40 40 29 24 27 41 48 56 58 57 59 59 79 85 93 72 76 72 69 58 56 57 56 54 53 57
19 23 29 30 34 32 33 34 33 30 26 29 40 49 54 52 53 58 66 63 78 72 68 67 62 63 65 63 60 60 60 58 61
17 21 31 33 38 39 36 35 36 31 27 21 31 47 45 43 50 52 61 60 54 60 62 61 68 65 67 64 64 58 59 60 62
20 27 34 39 40 42 45 42 37 33 36 30 26 36 38 50 54 48 70 55 68 64 61 55 59 52 56 54 50 43 44 47 50
31 35 34 44 55 51 45 42 36 33 38 42 36 36 42 39 54 60 59 62 67 66 58 52 51 54 50 47 42 39 40 33 45
Wind_Direction_850mb
218 210 206 204 205 201 202 204 207 209 211 214 213 215 220 220 219 216 219 219 217 219 218 227 220 217 231 246 247 253 252 259 264
209 229 214 202 205 205 202 204 209 213 216 217 218 218 219 221 219 218 220 220 220 222 202 189 197 215 227 242 248 257 263 259 264
193 208 201 204 198 200 207 209 210 213 218 218 217 215 217 221 221 220 220 222 220 215 210 211 217 230 238 246 250 264 264 262 266
158 168 229 217 212 206 209 211 212 213 217 217 215 212 215 220 222 222 222 222 219 217 219 223 226 234 241 249 255 262 262 260 263
168 160 206 233 227 216 208 212 213 216 218 216 215 210 211 217 222 222 223 224 222 221 224 222 228 236 240 245 251 254 256 255 259
88 329 256 221 222 208 211 214 215 216 219 218 216 212 212 215 218 220 223 223 222 223 224 226 228 231 236 242 253 248 246 249 252
56 53 46 74 254 213 210 215 217 218 220 220 218 215 214 216 218 219 220 219 220 223 227 229 231 232 236 240 249 245 243 246 237
62 57 51 49 50 30 336 252 218 222 221 220 219 219 220 219 219 221 219 217 218 224 228 230 231 232 232 238 238 240 240 236 229
48 48 55 49 43 34 23 4 251 229 225 223 220 222 224 224 222 219 220 218 216 221 227 227 228 227 235 236 232 234 232 229 227
54 46 33 26 7 7 7 352 330 244 232 226 224 223 225 225 225 222 222 220 216 217 223 223 224 226 235 227 226 226 223 219 216
359 344 326 329 336 324 272 318 315 265 237 231 226 225 225 226 224 225 225 221 220 219 223 221 218 224 232 221 222 218 207 201 208
47 60 43 39 358 324 310 293 293 262 238 233 230 225 226 226 225 225 225 223 222 221 227 220 215 227 221 216 217 216 207 206 208
72 50 33 19 14 6 329 305 294 258 234 229 231 228 227 226 228 229 228 226 221 224 231 239 237 232 216 216 213 211 210 206 210
35 8 358 1 4 357 360 355 327 282 229 227 230 228 227 228 228 234 238 227 222 226 227 213 231 221 213 212 215 212 208 210 211
30 10 358 350 351 353 349 3 356 307 242 230 227 227 233 245 248 249 248 229 222 222 223 218 216 204 206 207 214 215 212 216 219
316 345 339 332 334 333 341 344 355 355 285 254 247 240 242 247 250 249 248 241 232 219 215 208 202 203 201 211 211 212 213 217 217
297 304 318 327 327 328 329 329 337 344 1 290 266 253 242 243 245 247 250 246 226 224 213 209 212 209 210 211 210 213 212 212 212
300 288 296 301 314 318 320 311 314 323 324 316 291 263 259 245 248 250 245 241 244 228 235 238 219 212 216 217 216 217 217 215 212
302 292 296 292 295 300 307 308 298 295 302 303 277 259 248 250 247 238 246 236 232 228 230 231 217 225 225 222 231 234 222 219 220
290 305 284 286 288 284 289 289 303 297 299 296 269 254 245 238 242 258 235 241 228 229 219 218 218 218 221 220 229 219 202 209 214